Waarnemingen

Advertentie
Mijn weer
Aelvdalen, Zweden (2321): temperatuur & dauwpunt: 29.07.2020 19:00:00 - 04.08.2020 19:00:00 (CEST)Aelvdalen, Zweden (2321): windsnelheid & windstoten: 29.07.2020 19:00:00 - 04.08.2020 19:00:00 (CEST)Aelvdalen, Zweden (2321): windrichting: 29.07.2020 19:00:00 - 04.08.2020 19:00:00 (CEST)Aelvdalen, Zweden (2321): luchtdruk: 29.07.2020 19:00:00 - 04.08.2020 19:00:00 (CEST)Aelvdalen, Zweden (2321): zicht: 29.07.2020 19:00:00 - 04.08.2020 19:00:00 (CEST)Aelvdalen, Zweden (2321): neerslag: 29.07.2020 19:00:00 - 04.08.2020 19:00:00 (CEST)
Datum & Tijd tt [°C] td [°C] ff [km/u] ff [kn] fx [km/u] fx [kn] dd ppp [hPa] vv [km] rr [mm]
04.08.2020 19:00:00 16,8 8,3 7 4 18 10 ZZO 1007,8 45 0,0
04.08.2020 18:00:00 18,4 7,8 10 6 18 10 ZZO 1007,6 50 0,0
04.08.2020 17:00:00 18,4 6,3 6 4 13 7 Z 1007,5 48 0,0
04.08.2020 16:00:00 17,9 7,0 6 3 12 6 WNW 1007,8 50 0,0
04.08.2020 15:00:00 18,7 7,2 4 2 10 6 OZO 1007,6 45 0,0
04.08.2020 14:00:00 15,6 7,1 3 2 16 9 Z 1008,3 48 0,1
04.08.2020 13:00:00 15,0 8,7 4 2 11 6 W 1008,5 14 0,2
04.08.2020 12:00:00 16,6 6,4 10 5 - - NW 1008,4 41 0,0
04.08.2020 11:00:00 16,1 7,1 9 5 19 11 WNW 1008,5 41 0,0
04.08.2020 10:00:00 15,0 7,1 5 3 10 6 NW 1008,7 38 0,0
04.08.2020 09:00:00 13,3 7,9 0 0 7 4 N 1009,0 50 0,0
04.08.2020 08:00:00 10,1 7,0 0 0 - - N 1009,2 50 0,0
04.08.2020 07:00:00 7,1 5,4 2 1 6 4 NNO 1009,5 50 0,0
04.08.2020 06:00:00 4,3 4,2 3 2 7 4 NNO 1009,8 50 0,0
04.08.2020 05:00:00 3,4 3,1 3 1 6 3 OZO 1010,1 2,2 0,0
04.08.2020 04:00:00 4,1 3,8 4 2 8 4 O 1009,7 50 0,0
04.08.2020 03:00:00 5,5 4,9 0 0 6 3 N 1009,2 50 0,0
04.08.2020 02:00:00 6,6 5,4 4 2 10 5 OZO 1008,8 50 0,0
04.08.2020 01:00:00 8,9 6,3 5 3 9 5 N 1007,9 50 0,0
04.08.2020 00:00:00 9,5 6,6 0 0 10 6 N 1007,6 50 0,0
03.08.2020 23:00:00 10,9 6,8 8 4 22 12 WNW 1006,8 50 0,0
03.08.2020 22:00:00 12,1 7,8 11 6 23 12 WNW 1006,4 50 0,0
03.08.2020 21:00:00 13,0 8,3 10 5 30 16 WNW 1005,7 50 0,0
03.08.2020 20:00:00 14,4 8,8 16 9 31 17 WNW 1004,6 50 0,0
03.08.2020 19:00:00 14,2 11,2 9 5 28 15 W 1004,1 50 0,1
03.08.2020 18:00:00 15,6 9,9 10 5 29 16 ZW 1003,3 49 0,0
03.08.2020 17:00:00 16,4 7,6 14 8 31 17 WZW 1003,0 50 0,0
03.08.2020 16:00:00 16,9 8,1 16 8 33 18 WZW 1002,6 41 0,0
03.08.2020 15:00:00 16,2 8,4 14 8 32 18 ZW 1002,6 50 0,0
03.08.2020 14:00:00 17,1 8,3 11 6 24 13 ZW 1002,3 50 0,0
03.08.2020 13:00:00 15,7 10,0 11 6 34 18 WZW 1002,3 47 0,0
03.08.2020 12:00:00 17,6 9,7 11 6 25 13 ZW 1001,4 50 0,0
03.08.2020 11:00:00 17,1 10,7 7 4 16 9 Z 1001,4 46 0,0
03.08.2020 10:00:00 15,9 10,2 9 5 19 11 ZW 1001,6 47 0,0
03.08.2020 09:00:00 14,3 12,3 6 4 15 8 ZZO 1002,2 46 0,0
03.08.2020 08:00:00 13,2 11,9 7 4 11 6 ZZO 1002,3 23 0,0
03.08.2020 07:00:00 13,2 11,8 4 2 13 7 Z 1002,5 48 0,0
03.08.2020 06:00:00 13,2 11,8 5 3 24 13 ZZW 1002,6 35 0,0
03.08.2020 05:00:00 13,7 12,6 5 3 15 8 ZZW 1002,4 42 0,0
03.08.2020 04:00:00 13,6 13,1 4 2 9 5 ZZW 1002,5 25 0,3
03.08.2020 03:00:00 13,7 12,9 8 4 13 7 ZZO 1002,9 10 0,3
03.08.2020 02:00:00 13,6 12,3 7 4 14 8 ZZO 1003,0 50 0,0
03.08.2020 01:00:00 14,5 14,0 0 0 5 3 N 1003,3 18 0,0
03.08.2020 00:00:00 15,2 14,4 4 2 9 5 ZO 1003,3 37 0,0
02.08.2020 23:00:00 16,0 14,7 5 3 11 6 ZO 1003,3 50 0,3
02.08.2020 22:00:00 16,3 15,2 6 4 16 9 ZO 1003,3 17 0,4
02.08.2020 21:00:00 18,6 13,9 9 5 17 9 ZZO 1003,1 50 0,0
02.08.2020 20:00:00 19,2 13,8 5 3 10 6 ZO 1003,1 50 0,0
02.08.2020 19:00:00 19,9 13,6 6 3 20 11 ZZO 1003,4 50 0,0
02.08.2020 18:00:00 20,5 12,5 9 5 22 12 Z 1003,7 50 0,0
02.08.2020 17:00:00 21,0 12,9 9 5 22 12 Z 1003,9 50 0,0
02.08.2020 16:00:00 22,6 12,8 8 4 16 9 ZO 1004,1 50 0,0
02.08.2020 15:00:00 21,0 12,2 5 3 17 9 Z 1005,1 50 0,0
02.08.2020 14:00:00 21,4 12,3 7 4 24 13 Z 1005,4 50 0,0
02.08.2020 13:00:00 22,7 12,0 12 6 29 16 ZZW 1005,6 43 0,0
02.08.2020 12:00:00 21,8 11,8 10 5 29 15 ZW 1006,1 43 0,0
02.08.2020 11:00:00 21,7 12,0 14 7 25 14 ZW 1006,8 46 0,0
02.08.2020 10:00:00 21,1 12,2 6 3 16 9 ZZW 1007,2 50 0,0
02.08.2020 09:00:00 18,4 12,6 2 1 6 3 NW 1008,1 48 0,0
02.08.2020 08:00:00 14,7 11,8 0 0 3 2 N 1009,1 38 0,0
02.08.2020 07:00:00 13,2 11,4 0 0 3 1 N 1009,7 44 0,0
02.08.2020 06:00:00 10,2 10,0 0 0 3 2 N 1010,5 35 0,0
02.08.2020 05:00:00 9,8 9,7 0 0 4 2 N 1011,0 1,3 0,0
02.08.2020 04:00:00 10,8 10,5 0 0 5 3 N 1011,4 7 0,0
02.08.2020 03:00:00 11,6 11,1 3 1 8 4 NNO 1011,6 41 0,0
02.08.2020 02:00:00 12,9 11,8 3 2 9 5 NNW 1011,8 50 0,0
02.08.2020 01:00:00 13,8 12,5 0 0 7 4 N 1012,2 50 0,0
02.08.2020 00:00:00 14,8 12,8 3 2 11 6 ZZO 1012,2 50 0,0
01.08.2020 23:00:00 15,4 12,9 3 2 6 3 O 1012,3 50 0,0
01.08.2020 22:00:00 19,0 13,0 0 0 9 5 N 1012,0 50 0,0
01.08.2020 21:00:00 21,5 12,6 5 3 16 8 ZZO 1011,9 50 0,0
01.08.2020 20:00:00 22,1 11,5 4 2 14 8 ZZW 1012,4 50 0,0
01.08.2020 19:00:00 23,3 11,4 6 3 21 11 ZZW 1012,5 50 0,0
01.08.2020 18:00:00 23,8 11,2 7 4 20 11 Z 1012,9 50 0,0
01.08.2020 17:00:00 25,0 10,5 9 5 23 13 ZW 1013,2 40 0,0
01.08.2020 16:00:00 24,5 10,7 11 6 22 12 ZZO 1013,5 50 0,0
01.08.2020 15:00:00 24,9 11,1 8 5 19 11 Z 1014,2 48 0,0
01.08.2020 14:00:00 23,6 11,3 5 3 18 10 W 1015,1 50 0,0
01.08.2020 13:00:00 24,4 12,0 9 5 20 11 Z 1015,6 48 0,0
01.08.2020 12:00:00 23,2 11,3 10 6 19 10 ZZO 1016,0 48 0,0
01.08.2020 11:00:00 22,3 13,1 6 3 10 6 ZZO 1016,6 43 0,0
01.08.2020 10:00:00 18,5 12,5 2 1 5 3 NW 1017,5 48 0,0
01.08.2020 09:00:00 15,5 11,1 0 0 5 3 N 1018,1 41 0,0
01.08.2020 08:00:00 12,5 10,0 2 1 5 3 NW 1019,0 46 0,0
01.08.2020 07:00:00 10,0 8,8 2 1 5 3 WNW 1019,6 50 0,0
01.08.2020 06:00:00 7,8 7,8 2 1 5 3 W 1020,1 21 0,0
01.08.2020 05:00:00 6,9 6,8 0 0 - - N 1020,3 8 0,0
01.08.2020 04:00:00 7,8 7,8 0 0 5 3 N 1020,2 7 0,0
01.08.2020 03:00:00 8,2 8,1 2 1 6 3 W 1020,4 1,3 0,0
01.08.2020 02:00:00 8,9 8,6 0 0 4 2 N 1020,3 0,9 0,0
01.08.2020 01:00:00 10,7 10,1 0 0 10 5 N 1020,0 39 0,0
01.08.2020 00:00:00 11,7 11,1 4 2 7 4 N 1019,6 50 0,0
31.07.2020 23:00:00 12,9 12,6 2 1 4 2 N 1019,2 4,8 0,0
31.07.2020 22:00:00 14,8 13,5 0 0 5 3 N 1018,8 50 0,0
31.07.2020 21:00:00 17,8 13,7 0 0 4 2 N 1017,9 50 0,0
31.07.2020 20:00:00 21,1 12,5 3 2 8 4 O 1017,3 50 0,0
31.07.2020 19:00:00 22,5 12,7 3 2 11 6 W 1017,2 41 0,0
31.07.2020 18:00:00 22,0 12,5 6 4 13 7 W 1017,2 44 0,0
31.07.2020 17:00:00 20,5 12,5 7 4 16 9 NNO 1017,5 46 0,0
31.07.2020 16:00:00 19,6 12,6 8 4 15 8 NNW 1017,7 50 0,0
31.07.2020 15:00:00 18,4 12,8 8 4 16 9 NNW 1017,9 50 0,0
31.07.2020 14:00:00 18,6 13,7 5 3 26 14 N 1017,7 50 0,0
31.07.2020 13:00:00 18,0 13,1 13 7 25 14 N 1017,7 46 0,0
31.07.2020 12:00:00 18,0 12,9 10 5 22 12 N 1017,4 50 0,0
31.07.2020 11:00:00 17,4 12,7 10 6 18 10 N 1017,2 50 0,0
31.07.2020 10:00:00 16,7 12,6 9 5 - - N 1016,7 50 0,0
31.07.2020 09:00:00 16,5 12,5 10 5 20 11 NNW 1016,0 50 0,0
31.07.2020 08:00:00 15,4 13,1 3 1 6 3 NNW 1015,6 50 0,0
31.07.2020 07:00:00 12,2 11,4 0 0 - - N 1015,6 40 0,0
31.07.2020 06:00:00 11,1 10,8 0 0 4 2 N 1015,1 50 0,0
31.07.2020 05:00:00 10,3 10,1 0 0 5 3 N 1014,8 39 0,0
31.07.2020 04:00:00 10,7 10,4 3 2 6 3 ZW 1014,2 34 0,0
31.07.2020 03:00:00 12,0 11,2 3 1 8 5 NNO 1013,3 50 0,0
31.07.2020 02:00:00 13,5 11,7 7 4 14 8 NNW 1012,4 50 0,0
31.07.2020 01:00:00 13,7 12,8 5 3 26 14 WNW 1011,5 39 0,2
31.07.2020 00:00:00 15,5 11,7 11 6 35 19 NNW 1010,0 50 0,0
30.07.2020 23:00:00 16,6 10,7 13 7 33 18 NNW 1008,3 50 0,0
30.07.2020 22:00:00 16,0 11,0 8 5 27 15 NW 1007,6 50 0,0
30.07.2020 21:00:00 16,2 11,4 9 5 23 13 NW 1007,0 50 0,0
30.07.2020 20:00:00 16,6 11,7 12 7 32 17 WNW 1006,4 50 0,0
30.07.2020 19:00:00 16,9 11,6 16 9 31 17 WNW 1006,2 50 0,0
30.07.2020 18:00:00 16,5 12,1 10 6 25 13 WNW 1006,1 50 0,0
30.07.2020 17:00:00 15,6 12,2 14 7 29 16 WNW 1006,0 50 0,0
30.07.2020 16:00:00 14,7 12,2 13 7 31 17 W 1006,0 36 0,2
30.07.2020 15:00:00 15,2 11,4 14 7 41 22 WNW 1005,7 32 0,0
30.07.2020 14:00:00 16,6 10,7 17 9 31 17 NNW 1005,2 50 0,0
30.07.2020 13:00:00 17,4 10,5 16 8 32 17 NW 1004,6 42 0,0
30.07.2020 12:00:00 18,3 11,1 11 6 26 14 WNW 1004,0 49 0,0
30.07.2020 11:00:00 17,1 11,4 10 6 26 14 WNW 1004,0 50 0,0
30.07.2020 10:00:00 16,3 11,2 9 5 16 9 WNW 1003,9 49 0,0
30.07.2020 09:00:00 13,4 11,6 3 2 9 5 NO 1004,1 50 0,0
30.07.2020 08:00:00 11,3 10,2 5 3 14 8 NNO 1004,2 50 0,0
30.07.2020 07:00:00 9,3 9,3 6 4 15 8 NNW 1004,1 4,3 0,0
30.07.2020 06:00:00 9,0 9,0 6 3 14 8 NNW 1003,9 1,4 0,0
30.07.2020 05:00:00 9,3 9,2 5 3 11 6 N 1003,6 1,2 0,0
30.07.2020 04:00:00 9,4 9,3 3 2 9 5 N 1003,5 25 0,0
30.07.2020 03:00:00 9,2 9,2 3 2 6 3 NNW 1003,4 1,1 0,0
30.07.2020 02:00:00 9,4 9,4 0 0 5 3 N 1003,3 37 0,0
30.07.2020 01:00:00 9,4 9,4 0 0 5 3 N 1003,1 2,4 0,0
30.07.2020 00:00:00 10,1 10,1 0 0 3 2 N 1002,8 7 0,0
29.07.2020 23:00:00 10,6 10,4 0 0 5 3 N 1002,7 0,4 0,0
29.07.2020 22:00:00 11,5 11,2 3 1 5 3 NNO 1002,2 9 0,0
29.07.2020 21:00:00 12,6 11,5 3 1 6 3 OZO 1001,7 50 0,0
29.07.2020 20:00:00 14,1 12,1 2 1 12 7 NO 1001,8 50 0,1
29.07.2020 19:00:00 14,3 12,9 6 4 16 9 Z 1001,6 37 0,0

tt = temperatuur
td = dauwpunt
ff = windsnelheid
fx = windstoten
dd = windrichting
ppp = luchtdruk
vv = zicht
rr = neerslag

Weerstations in de omgeving